Location: St. Louis
(38.6270°N, 90.1994°W)
Time: 19:12:42
(UTC-06:00)

X-37B - Visible Passes

Search period start: 30 November 2022 00:00
Search period end: 10 December 2022 00:00
Orbit: 277 x 277 km, 45.0° (Epoch: 01 November)

Date Brightness Start Highest point End Pass type
(mag) Time Alt. Az. Time Alt. Az. Time Alt. Az.
05 Dec 2.5 17:29:26 10° SSE 17:30:10 11° SE 17:30:54 10° ESE visible
06 Dec 1.7 17:28:45 10° SSW 17:30:42 21° SE 17:32:02 14° ESE visible
07 Dec 0.6 17:28:57 10° SW 17:31:17 42° SSE 17:32:48 18° E visible
08 Dec -0.2 17:29:30 10° WSW 17:31:57 89° NNE 17:33:32 19° ENE visible
09 Dec 0.5 17:30:16 10° W 17:32:39 47° NNW 17:34:13 18° NE visible
